BTK7108 WIEE-WIII

Flight info

Callsign BTK7108
Flight time 1h 15m
Altitude 37000
Route BEPNO T7 TOPUK T5 BUNIK
Aircraft A20N/M-SDE2E3FGHIRWXY/LB1

Departure

Time 2026-05-08 08:35
Airport Minangkabau International Airport (WIEE)

Arrival

Time 2026-05-08 09:50
Airport Soekarno-Hatta International Airport (WIII)
Time Latitude Longitude Altitude Speed Heading
2026-05-08 08:11 -0.78583 100.28475 49 ft 0 kts 66°
2026-05-08 08:24 -0.78588 100.28464 54 ft 2 kts 66°
2026-05-08 08:24 -0.78594 100.28451 55 ft 2 kts 67°
2026-05-08 08:24 -0.78600 100.28437 54 ft 2 kts 66°
2026-05-08 08:24 -0.78606 100.28423 52 ft 1 kts 57°
2026-05-08 08:25 -0.78618 100.28414 51 ft 2 kts 13°
2026-05-08 08:25 -0.78633 100.28413 50 ft 2 kts 343°
2026-05-08 08:25 -0.78647 100.28420 49 ft 2 kts 333°
2026-05-08 08:25 -0.78661 100.28426 49 ft 2 kts 335°
2026-05-08 08:26 -0.78667 100.28429 49 ft 0 kts 334°
2026-05-08 08:30 -0.78666 100.28429 49 ft 0 kts 334°
2026-05-08 08:30 -0.78638 100.28415 50 ft 8 kts 334°
2026-05-08 08:30 -0.78483 100.28327 51 ft 15 kts 291°
2026-05-08 08:31 -0.78506 100.28226 52 ft 15 kts 244°
2026-05-08 08:31 -0.78552 100.28129 52 ft 15 kts 245°
2026-05-08 08:31 -0.78559 100.28027 52 ft 15 kts 317°
2026-05-08 08:31 -0.78465 100.27982 53 ft 14 kts 336°
2026-05-08 08:32 -0.78376 100.27942 55 ft 13 kts 335°
2026-05-08 08:32 -0.78285 100.27900 56 ft 14 kts 334°
2026-05-08 08:32 -0.78178 100.27850 58 ft 18 kts 335°
2026-05-08 08:32 -0.78048 100.27789 58 ft 22 kts 335°
2026-05-08 08:33 -0.77897 100.27720 60 ft 24 kts 335°
2026-05-08 08:33 -0.77730 100.27643 59 ft 24 kts 335°
2026-05-08 08:33 -0.77597 100.27617 56 ft 14 kts 347°
2026-05-08 08:33 -0.77598 100.27581 57 ft 6 kts 168°
2026-05-08 08:34 -0.77614 100.27587 57 ft 0 kts 155°
2026-05-08 08:34 -0.77634 100.27596 58 ft 21 kts 155°
2026-05-08 08:34 -0.78008 100.27769 59 ft 93 kts 155°
2026-05-08 08:34 -0.78813 100.28140 48 ft 153 kts 154°
2026-05-08 08:35 -0.79905 100.28636 292 ft 178 kts 155°
2026-05-08 08:35 -0.81043 100.29149 933 ft 178 kts 153°
2026-05-08 08:35 -0.82172 100.29691 1573 ft 180 kts 151°
2026-05-08 08:35 -0.83107 100.30507 2099 ft 184 kts 116°
2026-05-08 08:36 -0.83330 100.31794 2499 ft 193 kts 80°
2026-05-08 08:36 -0.83102 100.33202 2917 ft 209 kts 85°
2026-05-08 08:36 -0.83148 100.34717 3298 ft 228 kts 97°
2026-05-08 08:36 -0.83508 100.36392 3639 ft 252 kts 105°
2026-05-08 08:37 -0.84095 100.38110 4094 ft 269 kts 111°
2026-05-08 08:37 -0.84838 100.39900 4757 ft 278 kts 113°
2026-05-08 08:37 -0.85641 100.41676 5592 ft 279 kts 115°
2026-05-08 08:37 -0.86464 100.43425 6434 ft 280 kts 115°
2026-05-08 08:38 -0.87311 100.45180 7249 ft 281 kts 115°
2026-05-08 08:38 -0.88178 100.46958 8017 ft 283 kts 115°
2026-05-08 08:38 -0.89055 100.48749 8733 ft 287 kts 115°
2026-05-08 08:38 -0.89936 100.50542 9434 ft 290 kts 115°
2026-05-08 08:39 -0.90836 100.52372 10124 ft 293 kts 115°
2026-05-08 08:39 -0.91734 100.54192 10679 ft 300 kts 115°
2026-05-08 08:39 -0.92698 100.56152 10982 ft 318 kts 115°
2026-05-08 08:39 -0.93702 100.58189 11272 ft 334 kts 115°
2026-05-08 08:40 -0.94766 100.60345 11550 ft 351 kts 115°
2026-05-08 08:40 -0.95875 100.62592 11820 ft 366 kts 115°
2026-05-08 08:40 -0.97038 100.64944 12190 ft 377 kts 115°
2026-05-08 08:40 -0.98206 100.67316 12766 ft 380 kts 115°
2026-05-08 08:41 -0.99389 100.69723 13364 ft 383 kts 115°
2026-05-08 08:41 -1.00596 100.72165 13938 ft 386 kts 116°
2026-05-08 08:41 -1.01986 100.74492 14501 ft 389 kts 122°
2026-05-08 08:41 -1.03520 100.76774 15032 ft 392 kts 123°
2026-05-08 08:42 -1.05054 100.79028 15519 ft 395 kts 122°
2026-05-08 08:42 -1.06606 100.81325 16012 ft 397 kts 122°
2026-05-08 08:42 -1.08157 100.83644 16497 ft 400 kts 122°
2026-05-08 08:42 -1.09721 100.86001 16970 ft 402 kts 122°
2026-05-08 08:43 -1.11272 100.88335 17430 ft 405 kts 121°
2026-05-08 08:43 -1.12856 100.90712 17904 ft 406 kts 121°
2026-05-08 08:43 -1.14413 100.93061 18347 ft 408 kts 121°
2026-05-08 08:43 -1.15989 100.95445 18779 ft 410 kts 122°
2026-05-08 08:44 -1.17585 100.97863 19207 ft 412 kts 121°
2026-05-08 08:44 -1.19175 101.00279 19616 ft 415 kts 121°
2026-05-08 08:44 -1.20781 101.02720 20008 ft 417 kts 121°
2026-05-08 08:44 -1.22371 101.05135 20390 ft 419 kts 121°
2026-05-08 08:45 -1.23989 101.07597 20767 ft 421 kts 121°
2026-05-08 08:45 -1.25615 101.10070 21116 ft 424 kts 121°
2026-05-08 08:45 -1.27230 101.12528 21448 ft 427 kts 121°
2026-05-08 08:45 -1.28864 101.15015 21786 ft 429 kts 121°
2026-05-08 08:46 -1.30516 101.17529 22119 ft 431 kts 121°
2026-05-08 08:46 -1.32182 101.20063 22468 ft 433 kts 121°
2026-05-08 08:46 -1.33862 101.22622 22813 ft 435 kts 121°
2026-05-08 08:46 -1.35532 101.25166 23130 ft 437 kts 121°
2026-05-08 08:47 -1.37219 101.27735 23459 ft 439 kts 121°
2026-05-08 08:47 -1.38908 101.30306 23796 ft 441 kts 121°
2026-05-08 08:47 -1.40609 101.32895 24097 ft 443 kts 121°
2026-05-08 08:47 -1.42315 101.35493 24389 ft 446 kts 121°
2026-05-08 08:48 -1.44022 101.38092 24679 ft 448 kts 121°
2026-05-08 08:48 -1.45766 101.40748 24961 ft 450 kts 122°
2026-05-08 08:48 -1.47501 101.43391 25239 ft 452 kts 121°
2026-05-08 08:48 -1.49228 101.46020 25511 ft 454 kts 122°
2026-05-08 08:49 -1.50996 101.48711 25758 ft 456 kts 121°
2026-05-08 08:49 -1.52736 101.51360 26015 ft 458 kts 122°
2026-05-08 08:49 -1.54509 101.54060 26269 ft 460 kts 121°
2026-05-08 08:49 -1.56290 101.56773 26508 ft 462 kts 121°
2026-05-08 08:50 -1.58092 101.59517 26750 ft 463 kts 121°
2026-05-08 08:50 -1.59858 101.62208 26976 ft 464 kts 121°
2026-05-08 08:50 -1.61663 101.64958 27191 ft 466 kts 121°
2026-05-08 08:50 -1.63461 101.67705 27392 ft 468 kts 121°
2026-05-08 08:51 -1.65241 101.70435 27593 ft 469 kts 121°
2026-05-08 08:51 -1.67092 101.73234 27854 ft 470 kts 124°
2026-05-08 08:51 -1.69199 101.75738 28143 ft 470 kts 131°
2026-05-08 08:51 -1.71511 101.78093 28453 ft 470 kts 133°
2026-05-08 08:52 -1.73859 101.80421 28734 ft 470 kts 133°
2026-05-08 08:52 -1.76212 101.82772 29000 ft 470 kts 133°
2026-05-08 08:52 -1.78552 101.85141 29281 ft 470 kts 133°
2026-05-08 08:52 -1.80832 101.87473 29571 ft 469 kts 132°
2026-05-08 08:53 -1.83153 101.89865 29870 ft 468 kts 132°
2026-05-08 08:53 -1.85438 101.92230 30160 ft 468 kts 132°
2026-05-08 08:53 -1.87713 101.94591 30452 ft 467 kts 132°
2026-05-08 08:53 -1.89993 101.96962 30738 ft 467 kts 131°
2026-05-08 08:54 -1.92257 101.99320 31012 ft 467 kts 132°
2026-05-08 08:54 -1.94551 102.01706 31293 ft 467 kts 131°
2026-05-08 08:54 -1.96818 102.04067 31583 ft 466 kts 131°
2026-05-08 08:54 -1.99104 102.06447 31882 ft 465 kts 131°
2026-05-08 08:55 -2.01350 102.08786 32169 ft 464 kts 131°
2026-05-08 08:55 -2.03630 102.11161 32446 ft 463 kts 131°
2026-05-08 08:55 -2.05860 102.13485 32731 ft 463 kts 131°
2026-05-08 08:55 -2.08133 102.15852 33026 ft 462 kts 131°
2026-05-08 08:56 -2.10366 102.18180 33319 ft 462 kts 131°
2026-05-08 08:56 -2.12639 102.20536 33619 ft 461 kts 131°
2026-05-08 08:56 -2.14902 102.22876 33919 ft 460 kts 131°
2026-05-08 08:56 -2.17160 102.25214 34221 ft 459 kts 131°
2026-05-08 08:57 -2.19389 102.27528 34510 ft 458 kts 131°
2026-05-08 08:57 -2.21629 102.29857 34800 ft 457 kts 131°
2026-05-08 08:57 -2.23841 102.32156 35068 ft 456 kts 131°
2026-05-08 08:57 -2.26066 102.34473 35273 ft 456 kts 131°
2026-05-08 08:58 -2.28303 102.36804 35433 ft 457 kts 131°
2026-05-08 08:58 -2.30531 102.39126 35576 ft 458 kts 131°
2026-05-08 08:58 -2.32771 102.41459 35723 ft 459 kts 131°
2026-05-08 08:58 -2.35022 102.43806 35866 ft 460 kts 131°
2026-05-08 08:59 -2.37251 102.46130 35991 ft 461 kts 131°
2026-05-08 08:59 -2.39517 102.48492 36121 ft 461 kts 131°
2026-05-08 08:59 -2.41766 102.50839 36246 ft 462 kts 131°
2026-05-08 08:59 -2.44038 102.53208 36359 ft 462 kts 131°
2026-05-08 09:00 -2.46268 102.55532 36475 ft 463 kts 131°
2026-05-08 09:00 -2.48535 102.57896 36584 ft 463 kts 131°
2026-05-08 09:00 -2.53076 102.62630 36772 ft 465 kts 131°
2026-05-08 09:01 -2.57646 102.67405 36786 ft 465 kts 131°
2026-05-08 09:01 -2.62163 102.72145 36794 ft 466 kts 131°
2026-05-08 09:02 -2.66700 102.76893 36798 ft 466 kts 131°
2026-05-08 09:02 -2.71239 102.81636 36793 ft 465 kts 131°
2026-05-08 09:03 -2.75812 102.86411 36797 ft 466 kts 131°
2026-05-08 09:03 -2.80362 102.91161 36798 ft 466 kts 131°
2026-05-08 09:04 -2.84915 102.95914 36792 ft 465 kts 131°
2026-05-08 09:04 -2.89455 103.00652 36789 ft 466 kts 131°
2026-05-08 09:05 -2.94005 103.05403 36785 ft 466 kts 132°
2026-05-08 09:05 -2.98556 103.10156 36782 ft 466 kts 132°
2026-05-08 09:06 -3.03087 103.14887 36787 ft 465 kts 132°
2026-05-08 09:06 -3.07631 103.19630 36784 ft 465 kts 132°
2026-05-08 09:07 -3.12201 103.24393 36783 ft 466 kts 132°
2026-05-08 09:07 -3.16779 103.29142 36777 ft 466 kts 132°
2026-05-08 09:08 -3.21328 103.33878 36779 ft 466 kts 132°
2026-05-08 09:08 -3.25867 103.38615 36781 ft 466 kts 131°
2026-05-08 09:09 -3.30414 103.43366 36783 ft 466 kts 131°
2026-05-08 09:09 -3.34989 103.48148 36786 ft 466 kts 131°
2026-05-08 09:10 -3.39536 103.52902 36796 ft 466 kts 131°
2026-05-08 09:10 -3.44081 103.57654 36804 ft 466 kts 131°
2026-05-08 09:11 -3.48607 103.62386 36811 ft 466 kts 131°
2026-05-08 09:11 -3.53147 103.67141 36806 ft 466 kts 131°
2026-05-08 09:12 -3.57675 103.71908 36804 ft 465 kts 131°
2026-05-08 09:12 -3.62204 103.76662 36804 ft 465 kts 131°
2026-05-08 09:13 -3.66745 103.81419 36804 ft 465 kts 131°
2026-05-08 09:13 -3.71273 103.86159 36800 ft 465 kts 131°
2026-05-08 09:14 -3.75833 103.90930 36797 ft 464 kts 131°
2026-05-08 09:14 -3.80376 103.95686 36799 ft 464 kts 131°
2026-05-08 09:15 -3.84896 104.00420 36792 ft 465 kts 131°
2026-05-08 09:15 -3.89422 104.05159 36786 ft 465 kts 131°
2026-05-08 09:16 -3.93953 104.09902 36784 ft 465 kts 131°
2026-05-08 09:16 -3.98479 104.14645 36786 ft 464 kts 131°
2026-05-08 09:17 -4.03018 104.19401 36786 ft 464 kts 131°
2026-05-08 09:17 -4.07535 104.24133 36789 ft 464 kts 131°
2026-05-08 09:18 -4.12095 104.28903 36789 ft 465 kts 131°
2026-05-08 09:18 -4.16646 104.33643 36793 ft 466 kts 131°
2026-05-08 09:19 -4.21222 104.38422 36792 ft 465 kts 131°
2026-05-08 09:19 -4.25741 104.43156 36795 ft 465 kts 131°
2026-05-08 09:20 -4.30296 104.47931 36803 ft 465 kts 131°
2026-05-08 09:20 -4.34862 104.52718 36805 ft 465 kts 131°
2026-05-08 09:21 -4.39401 104.57482 36805 ft 466 kts 131°
2026-05-08 09:23 -4.55341 104.74261 36804 ft 467 kts 131°
2026-05-08 09:23 -4.59903 104.79058 36805 ft 467 kts 131°
2026-05-08 09:24 -4.64454 104.83841 36808 ft 468 kts 131°
2026-05-08 09:24 -4.69053 104.88674 36803 ft 469 kts 130°
2026-05-08 09:25 -4.73623 104.93475 36801 ft 470 kts 130°
2026-05-08 09:25 -4.78193 104.98280 36801 ft 469 kts 131°
2026-05-08 09:26 -4.82773 105.03097 36791 ft 469 kts 131°
2026-05-08 09:26 -4.87317 105.07873 36780 ft 470 kts 131°
2026-05-08 09:27 -4.91878 105.12669 36415 ft 465 kts 130°
2026-05-08 09:27 -4.94157 105.15067 35623 ft 466 kts 130°
2026-05-08 09:27 -4.96425 105.17456 34583 ft 470 kts 131°
2026-05-08 09:27 -4.98741 105.19897 33530 ft 474 kts 131°
2026-05-08 09:28 -5.01029 105.22306 32505 ft 477 kts 131°
2026-05-08 09:28 -5.03354 105.24754 31566 ft 480 kts 131°
2026-05-08 09:28 -5.05722 105.27242 30591 ft 483 kts 132°
2026-05-08 09:28 -5.08054 105.29695 29709 ft 484 kts 132°
2026-05-08 09:29 -5.10410 105.32173 28867 ft 483 kts 132°
2026-05-08 09:29 -5.12784 105.34657 28051 ft 482 kts 132°
2026-05-08 09:29 -5.15003 105.36974 27264 ft 481 kts 132°
2026-05-08 09:29 -5.17342 105.39423 26681 ft 474 kts 132°
2026-05-08 09:30 -5.19644 105.41838 26158 ft 467 kts 132°
2026-05-08 09:30 -5.21931 105.44241 25627 ft 462 kts 132°
2026-05-08 09:30 -5.24155 105.46584 25095 ft 457 kts 132°
2026-05-08 09:30 -5.26387 105.48934 24550 ft 452 kts 133°
2026-05-08 09:31 -5.28571 105.51233 24020 ft 448 kts 132°
2026-05-08 09:31 -5.30733 105.53513 23494 ft 444 kts 133°
2026-05-08 09:31 -5.32883 105.55782 22960 ft 441 kts 132°
2026-05-08 09:31 -5.35048 105.58064 22420 ft 438 kts 132°
2026-05-08 09:32 -5.37165 105.60294 21913 ft 434 kts 133°
2026-05-08 09:32 -5.39256 105.62499 21431 ft 430 kts 132°
2026-05-08 09:32 -5.41357 105.64715 20944 ft 426 kts 133°
2026-05-08 09:32 -5.43412 105.66890 20443 ft 422 kts 132°
2026-05-08 09:33 -5.45448 105.69052 19946 ft 419 kts 132°
2026-05-08 09:33 -5.47461 105.71186 19450 ft 415 kts 132°
2026-05-08 09:33 -5.49483 105.73326 18945 ft 412 kts 132°
2026-05-08 09:33 -5.51455 105.75412 18462 ft 408 kts 132°
2026-05-08 09:34 -5.53443 105.77512 17969 ft 404 kts 132°
2026-05-08 09:34 -5.55382 105.79559 17480 ft 400 kts 132°
2026-05-08 09:34 -5.57320 105.81606 17000 ft 396 kts 132°
2026-05-08 09:34 -5.59236 105.83630 16489 ft 394 kts 132°
2026-05-08 09:35 -5.61148 105.85650 15973 ft 391 kts 132°
2026-05-08 09:35 -5.63035 105.87644 15449 ft 389 kts 132°
2026-05-08 09:35 -5.64909 105.89624 14908 ft 387 kts 132°
2026-05-08 09:35 -5.66800 105.91620 14369 ft 385 kts 132°
2026-05-08 09:36 -5.68663 105.93588 13812 ft 384 kts 132°
2026-05-08 09:36 -5.70517 105.95546 13265 ft 382 kts 132°
2026-05-08 09:36 -5.72383 105.97517 12723 ft 380 kts 132°
2026-05-08 09:36 -5.74209 105.99446 12196 ft 378 kts 132°
2026-05-08 09:37 -5.76060 106.01402 11643 ft 376 kts 132°
2026-05-08 09:37 -5.77877 106.03321 11121 ft 374 kts 132°
2026-05-08 09:37 -5.79681 106.05228 10630 ft 370 kts 132°
2026-05-08 09:37 -5.81441 106.07088 10463 ft 355 kts 132°
2026-05-08 09:38 -5.83137 106.08881 10336 ft 341 kts 133°
2026-05-08 09:38 -5.84737 106.10574 10222 ft 327 kts 133°
2026-05-08 09:38 -5.86303 106.12231 10123 ft 313 kts 133°
2026-05-08 09:38 -5.87798 106.13814 10044 ft 299 kts 133°
2026-05-08 09:39 -5.89221 106.15318 9755 ft 295 kts 132°
2026-05-08 09:39 -5.90647 106.16828 9403 ft 293 kts 132°
2026-05-08 09:39 -5.92072 106.18337 9062 ft 290 kts 132°
2026-05-08 09:39 -5.93459 106.19804 8735 ft 288 kts 132°
2026-05-08 09:40 -5.94861 106.21290 8405 ft 285 kts 132°
2026-05-08 09:40 -5.96230 106.22739 8086 ft 282 kts 132°
2026-05-08 09:40 -5.97599 106.24188 7766 ft 280 kts 132°
2026-05-08 09:40 -5.98950 106.25620 7449 ft 277 kts 132°
2026-05-08 09:41 -6.00289 106.27036 7138 ft 275 kts 132°
2026-05-08 09:41 -6.01610 106.28434 6996 ft 264 kts 132°
2026-05-08 09:41 -6.02855 106.29749 6984 ft 249 kts 132°
2026-05-08 09:41 -6.04110 106.30972 6976 ft 245 kts 145°
2026-05-08 09:42 -6.05702 106.31622 6990 ft 247 kts 167°
2026-05-08 09:42 -6.07426 106.31918 6778 ft 250 kts 169°
2026-05-08 09:42 -6.09170 106.32191 6491 ft 248 kts 169°
2026-05-08 09:42 -6.10907 106.32470 6208 ft 246 kts 169°
2026-05-08 09:43 -6.12632 106.32760 5936 ft 245 kts 168°
2026-05-08 09:43 -6.14322 106.33050 5668 ft 245 kts 168°
2026-05-08 09:43 -6.16028 106.33349 5397 ft 244 kts 168°
2026-05-08 09:43 -6.17745 106.33651 5122 ft 242 kts 168°
2026-05-08 09:44 -6.19405 106.33946 5002 ft 237 kts 166°
2026-05-08 09:44 -6.20938 106.34610 4804 ft 236 kts 134°
2026-05-08 09:44 -6.21901 106.35920 4535 ft 231 kts 118°
2026-05-08 09:44 -6.22688 106.37341 4274 ft 229 kts 117°
2026-05-08 09:45 -6.23485 106.38767 4019 ft 229 kts 117°
2026-05-08 09:45 -6.23941 106.40282 4012 ft 226 kts 88°
2026-05-08 09:45 -6.23554 106.41822 4042 ft 226 kts 66°
2026-05-08 09:45 -6.22853 106.43283 4036 ft 228 kts 64°
2026-05-08 09:46 -6.22168 106.44729 3893 ft 229 kts 65°
2026-05-08 09:46 -6.21516 106.46216 3607 ft 229 kts 67°
2026-05-08 09:46 -6.20901 106.47704 3312 ft 228 kts 68°
2026-05-08 09:46 -6.20307 106.49182 3024 ft 227 kts 68°
2026-05-08 09:47 -6.19710 106.50680 2729 ft 226 kts 68°
2026-05-08 09:47 -6.19152 106.52085 2458 ft 226 kts 68°
2026-05-08 09:47 -6.18569 106.53552 2168 ft 220 kts 67°
2026-05-08 09:47 -6.18009 106.54958 1881 ft 207 kts 67°
2026-05-08 09:48 -6.17497 106.56247 1693 ft 190 kts 66°
2026-05-08 09:48 -6.17029 106.57419 1460 ft 174 kts 66°
2026-05-08 09:48 -6.16591 106.58515 1212 ft 163 kts 66°
2026-05-08 09:48 -6.16175 106.59557 989 ft 155 kts 66°
2026-05-08 09:49 -6.15780 106.60546 804 ft 146 kts 66°
2026-05-08 09:49 -6.15425 106.61440 636 ft 142 kts 66°
2026-05-08 09:49 -6.15044 106.62389 480 ft 141 kts 66°
2026-05-08 09:49 -6.14674 106.63316 301 ft 141 kts 66°
2026-05-08 09:50 -6.14307 106.64229 116 ft 141 kts 67°
2026-05-08 09:50 -6.13953 106.65123 48 ft 128 kts 66°
2026-05-08 09:50 -6.13683 106.65794 47 ft 79 kts 69°
2026-05-08 09:50 -6.13521 106.66170 47 ft 38 kts 50°
2026-05-08 09:51 -6.13411 106.66273 47 ft 10 kts 37°
2026-05-08 09:51 -6.13351 106.66303 47 ft 10 kts 352°
2026-05-08 09:51 -6.13311 106.66255 47 ft 10 kts 265°
2026-05-08 09:51 -6.13338 106.66189 47 ft 10 kts 250°
2026-05-08 09:52 -6.13365 106.66115 47 ft 11 kts 250°
2026-05-08 09:52 -6.13374 106.66090 47 ft 0 kts 249°
2026-05-08 09:54 -6.13376 106.66084 47 ft 4 kts 249°
2026-05-08 09:54 -6.13410 106.65998 47 ft 16 kts 248°
2026-05-08 09:55 -6.13449 106.65893 47 ft 17 kts 269°
2026-05-08 09:55 -6.13354 106.65824 47 ft 16 kts 337°
2026-05-08 09:55 -6.13257 106.65820 47 ft 7 kts 358°
2026-05-08 09:55 -6.13229 106.65776 47 ft 7 kts 278°
2026-05-08 09:56 -6.13226 106.65759 47 ft 0 kts 278°
2026-05-08 09:56 -6.13226 106.65757 47 ft 0 kts 278°